Location: Kawakawa
(35.3830°S, 174.0670°E)
Time: 20:37:18
(UTC+13:00)

Altair - Pass Details

Date: 11 December 2019
Orbit: 1502 x 1682 km, 47.2° (Epoch: 21 January)

Event Time Altitude Azimuth Distance (km) Brightness Sun altitude
Rises 10:47:39 0° 292° (WNW) 4,761 9.8 55.4°
Reaches altitude 10° 10:50:44 10° 289° (WNW) 3,804 9.4 56.1°
Maximum altitude 11:00:24 65° 207° (SSW) 1,778 8.6 58.0°
Drops below altitude 10° 11:10:30 10° 125° (SE) 3,946 10.1 60.0°
Sets 11:13:46 0° 122° (ESE) 4,946 10.4 60.6°
